User: anonymous   Login
Location: Whispering Pines Observatory
(39.4020°N, 104.7430°W)
Time: 12:12:46
(UTC-06:00)
Language:

MOS 1 Rocket - Orbit

View from above orbital plane
View from above orbital plane
View from above satellite
View from above satellite

Ground track
Ground track

The orbit data is extracted from the following two-line orbital elements,

1 17528U 87018B   17268.90707804  .00000106  00000-0  33077-4 0  9997
2 17528  97.4617 214.5840 0151678 342.6011  52.0624 14.50801964614488
Epoch (UTC): 25 September 2017 21:46:11
Eccentricity: 0.0151678
inclination: 97.4617°
perigee height: 615 km
apogee height: 831 km
right ascension of ascending node: 214.5840°
argument of perigee: 342.6011°
revolutions per day: 14.50801964
mean anomaly at epoch: 52.0624°
orbit number at epoch: 61448

The dashed part of the orbit path shows where the satellite is in the earth's shadow,  

DLR